Hauptseite
METAR-TAF:

METAR-TAF

Flughäfen :

Militärflugplatz Meiringen

Meiringen, Schweiz

Breite: 46-44-25N, Länge: 8-06-36E, Höhe: 577 m

Beobachtung

Neuester Wetterbericht von vor 35 Minuten, um 10:20 UTC
Wind 4 kt aus Nordost, variierte zwischen Nord und Ost
Temperatur 3°C
Luftfeuchtigkeit 70%
Luftdruck 1020 hPa
Sichtweite 10 km oder mehr
Aufgelockert bewölkt in der Höhe von 2000 ft
Geschlossene Wolkendecke in der Höhe von 2400 ft

METAR: LSMM 181020Z AUTO 05004KT 010V100 9999NDV SCT020 OVC024 03/M02 Q1020 RMK

Zeit: 11:55 (10:55 UTC)


TAF: fehlend

Wetterbeobachtungen und Prognosen von mehr als 4000 Flughäfen (METAR und TAF Bericht).

Die verfügbaren Stationen werden durch gelbe und rote Markierungen auf der Karte dargestellt.

Führen Sie die Maus auf sie, um den Namen der Station zu sehen.

Darauf klicken, um die Beobachtung von Wetterbeobachtungen und Prognosen zu sehen.

Um die Karte zu ändern : klicken Sie auf den grünen Tasten mit einem schwarzen Kreuz Zum Vergrößern, auf den grünen Button mit einem Gedankenstrich zu verkleinern, oder auf die grünen Pfeile für benachbarte Karten.


METAR-TAF: